Home   Weather   France   Brest   Past weeks
Flag for France

Past Weather in Brest, Finistère, France — Yesterday and Last 2 Weeks

Currently: 50 °F. Overcast. (Weather station: Brest Airport, France). See more current weather

Past Weather in Brest — Graph

°F

Brest Temperature Yesterday

Maximum temperature yesterday: 52 °F (at 1:00 pm)
Minimum temperature yesterday: 45 °F (at 8:30 am)
Average temperature yesterday: 47 °F

High & Low Weather Summary for the Past Weeks

 TemperatureHumidityPressure
High54 °F (Jan 31, 3:00 pm)100% (Jan 20, 12:00 am)30.63 "Hg (Jan 20, 12:00 am)
Low27 °F (Jan 23, 8:00 am)60% (Jan 22, 11:30 am)29.65 "Hg (Jan 18, 11:00 am)
Average42 °F81%30.39 "Hg
* Reported Jan 18 11:00 am — Feb 2 11:30 am, Brest. Weather by CustomWeather, © 2023

Note: Actual official high and low records may vary slightly from our data, if they occured in-between our weather recording intervals... More about our weather records

Brest Weather History for the Previous 24 Hours

Scroll right to see more
 ConditionsComfort  
Time TempWeatherWind HumidityBarometerVisibility
11:30 am
Thu, Feb 2
50 °FOvercast.3 mph67%30.54 "HgN/A
11:00 am48 °FOvercast.3 mph76%30.54 "HgN/A
10:30 am48 °FOvercast.3 mph76%30.54 "HgN/A
10:00 am46 °FOvercast.5 mph82%30.54 "HgN/A
9:30 am46 °FOvercast.5 mph76%30.51 "HgN/A
9:00 am46 °FOvercast.3 mph76%30.51 "HgN/A
8:30 am46 °FOvercast.5 mph76%30.51 "HgN/A
8:00 am46 °FOvercast.5 mph76%30.51 "HgN/A
7:00 am46 °FOvercast.5 mph82%30.51 "HgN/A
6:30 am46 °FOvercast.3 mph82%30.48 "HgN/A
6:00 am45 °FOvercast.5 mph87%30.48 "HgN/A
5:30 am45 °FMostly cloudy.3 mph87%30.48 "HgN/A
5:00 am45 °FOvercast.3 mph87%30.51 "HgN/A
4:30 am45 °FOvercast.3 mph87%30.51 "HgN/A
4:00 am45 °FOvercast.5 mph87%30.51 "HgN/A
3:30 am45 °FOvercast.6 mph87%30.51 "HgN/A
3:00 am46 °FMostly cloudy.5 mph76%30.51 "HgN/A
2:30 am46 °FOvercast.6 mph76%30.51 "HgN/A
2:00 am46 °FOvercast.6 mph76%30.51 "HgN/A
12:30 am46 °FOvercast.5 mph76%30.51 "HgN/A
12:00 am45 °FOvercast.5 mph81%30.51 "HgN/A
11:30 pm
Wed, Feb 1
46 °FOvercast.6 mph76%30.51 "HgN/A
11:00 pm46 °FOvercast.7 mph76%30.51 "HgN/A
10:00 pm45 °FOvercast.3 mph76%30.51 "HgN/A
9:30 pm46 °FOvercast.6 mph71%30.51 "HgN/A
9:00 pm46 °FOvercast.5 mph71%30.51 "HgN/A
8:00 pm46 °FOvercast.3 mph76%30.51 "HgN/A
7:00 pm46 °FOvercast.3 mph76%30.51 "HgN/A
6:30 pm48 °FOvercast.6 mph71%30.51 "HgN/A
6:00 pm48 °FOvercast.3 mph71%30.51 "HgN/A
5:00 pm50 °FOvercast.9 mph67%30.51 "HgN/A
4:30 pm50 °FMostly cloudy.7 mph67%30.48 "HgN/A
4:00 pm50 °FOvercast.8 mph67%30.48 "HgN/A
3:30 pm50 °FOvercast.8 mph67%30.48 "HgN/A
3:00 pm50 °FOvercast.9 mph62%30.48 "HgN/A
2:30 pm50 °FOvercast.10 mph67%30.48 "HgN/A
2:00 pm50 °FOvercast.10 mph67%30.51 "HgN/A
1:00 pm52 °FOvercast.8 mph67%30.51 "HgN/A
12:30 pm50 °FOvercast.6 mph71%30.51 "HgN/A
12:00 pm50 °FOvercast.8 mph67%30.51 "HgN/A
Weather by CustomWeather, © 2023

See weather overview